EW5800 Weather Reports


Display with metric or nautical units.
time (UTC)temp
F
wind
direction
speed
MPH
gust
MPH
rain 1hr
in
rain 24hr
in
rain mn
in
humidity
%
barometer
mb
20260906011528 68 52 0.0 3.0 0.00 0.00 0.00 58 1015.4
20260906010027 69 309 1.0 4.0 0.00 0.00 0.00 55 1015.3
20260906004527 69 24 0.0 4.0 0.00 0.00 0.00 54 1015.3
20260906003026 70 304 0.0 4.0 0.00 0.00 0.00 53 1015.3
20260906001526 71 257 0.0 3.0 0.00 0.00 0.00 52 1015.3
20260906000024 72 288 0.0 2.0 0.00 0.00 0.00 51 1015.2
20260905234522 73 302 0.0 4.0 0.00 0.00 0.00 50 1015.2
20260905233033 74 92 0.0 3.0 0.00 0.00 0.00 48 1015.3
20260905231523 74 309 0.0 4.0 0.00 0.00 0.00 49 1015.4
20260905230019 75 75 0.0 5.0 0.00 0.00 0.00 49 1015.4
20260905224518 74 43 2.0 6.0 0.00 0.00 0.00 50 1015.5
20260905223017 75 314 0.0 7.0 0.00 0.00 0.00 48 1015.5
20260905221527 77 207 0.0 2.0 0.00 0.00 0.00 46 1015.4
20260905220011 76 289 0.0 5.0 0.00 0.00 0.00 48 1015.5
20260905214509 74 123 0.0 2.0 0.00 0.00 0.00 50 1015.6
20260905213007 73 300 1.0 5.0 0.00 0.00 0.00 53 1015.7
20260905211517 73 75 1.0 5.0 0.00 0.00 0.00 54 1015.9
20260905210008 72 275 1.0 9.0 0.00 0.00 0.00 57 1016.0
20260905204503 73 86 0.0 6.0 0.00 0.00 0.00 58 1016.1
20260905203003 73 60 2.0 8.0 0.00 0.00 0.00 58 1016.2
20260905201502 72 66 0.0 6.0 0.00 0.00 0.00 62 1016.1
20260905200107 73 49 1.0 6.0 0.00 0.00 0.00 58 1016.1
20260905194600 73 39 0.0 5.0 0.00 0.00 0.00 57 1016.2
20260905193110 74 311 0.0 4.0 0.00 0.00 0.00 56 1016.3
20260905191556 72 309 1.0 7.0 0.00 0.00 0.00 57 1016.4
20260905190056 73 219 0.0 3.0 0.00 0.00 0.00 57 1016.5
20260905184557 72 118 0.0 5.0 0.00 0.00 0.00 59 1016.7
20260905183056 72 229 0.0 2.0 0.00 0.00 0.00 60 1016.9
20260905181550 71 80 0.0 3.0 0.00 0.00 0.00 59 1016.8
20260905180046 70 220 0.0 2.0 0.00 0.00 0.00 60 1017.0
20260905174543 69 58 0.0 0.0 0.00 0.00 0.00 64 1017.0
20260905173042 67 211 0.0 3.0 0.00 0.00 0.00 64 1016.9
20260905171536 64 181 0.0 1.0 0.00 0.00 0.00 73 1017.0
20260905170031 62 166 0.0 2.0 0.00 0.00 0.00 76 1017.1
20260905164527 60 219 0.0 1.0 0.00 0.00 0.00 81 1017.0
20260905163024 59 194 0.0 2.0 0.00 0.00 0.00 85 1017.1
20260905161522 58 193 0.0 1.0 0.00 0.00 0.00 89 1017.1
20260905160027 56 315 0.0 0.0 0.00 0.00 0.00 91 1017.2
20260905154521 55 315 0.0 0.0 0.00 0.00 0.00 92 1017.2
20260905153022 54 315 0.0 0.0 0.00 0.00 0.00 92 1017.1
20260905151520 54 315 0.0 0.0 0.00 0.00 0.00 92 1017.1
20260905150018 54 315 0.0 0.0 0.00 0.00 0.00 92 1016.8
20260905144519 54 315 0.0 0.0 0.00 0.00 0.00 92 1016.8
20260905143018 54 315 0.0 0.0 0.00 0.00 0.00 91 1016.8
20260905141514 55 315 0.0 0.0 0.00 0.00 0.00 91 1016.7
20260905140013 55 315 0.0 0.0 0.00 0.00 0.00 91 1016.7
20260905134512 55 315 0.0 0.0 0.00 0.00 0.00 91 1016.6
20260905133013 55 315 0.0 0.0 0.00 0.00 0.00 91 1016.6
20260905131512 55 315 0.0 0.0 0.00 0.00 0.00 91 1016.7
20260905130008 55 315 0.0 0.0 0.00 0.00 0.00 91 1016.7
20260905124506 56 315 0.0 0.0 0.00 0.00 0.00 90 1016.4
20260905123004 56 315 0.0 0.0 0.00 0.00 0.00 90 1016.4
20260905121502 56 315 0.0 0.0 0.00 0.00 0.00 89 1016.4
20260905114600 57 315 0.0 0.0 0.00 0.00 0.00 89 1016.3
20260905113109 57 315 0.0 1.0 0.00 0.00 0.00 87 1016.1
20260905111558 57 6 0.0 0.0 0.00 0.00 0.00 87 1016.1
20260905110056 57 6 0.0 0.0 0.00 0.00 0.00 87 1016.0
20260905104555 57 6 0.0 0.0 0.00 0.00 0.00 87 1016.0
20260905103056 57 6 0.0 0.0 0.00 0.00 0.00 88 1016.1
20260905101554 57 6 0.0 0.0 0.00 0.00 0.00 88 1016.0
20260905100100 57 5 0.0 0.0 0.00 0.00 0.00 88 1016.1
20260905094552 58 5 0.0 0.0 0.00 0.00 0.00 88 1016.0
20260905093055 58 6 0.0 0.0 0.00 0.00 0.00 86 1016.0
20260905091556 58 6 0.0 0.0 0.00 0.00 0.00 87 1016.1
20260905090051 57 6 0.0 0.0 0.00 0.00 0.00 88 1016.0
20260905084548 57 6 0.0 0.0 0.00 0.00 0.00 89 1016.0
20260905083047 57 6 0.0 0.0 0.00 0.00 0.00 89 1015.9
20260905081545 58 6 0.0 0.0 0.00 0.00 0.00 89 1015.8
20260905080047 58 6 0.0 0.0 0.00 0.00 0.00 88 1015.7
20260905074543 58 6 0.0 0.0 0.00 0.00 0.00 88 1015.7
20260905073041 58 6 0.0 0.0 0.00 0.00 0.00 87 1015.6
20260905071540 58 6 0.0 0.0 0.00 0.00 0.00 87 1015.6
20260905070038 59 6 0.0 0.0 0.00 0.00 0.00 86 1015.5
20260905064536 58 307 0.0 0.0 0.00 0.00 0.00 86 1015.4
20260905063036 59 307 0.0 0.0 0.00 0.00 0.00 86 1015.3
20260905061536 58 307 0.0 0.0 0.00 0.00 0.00 87 1015.3
20260905060034 58 307 0.0 0.0 0.00 0.00 0.00 87 1015.4
20260905054533 58 307 0.0 0.0 0.00 0.00 0.00 88 1015.3
20260905053036 59 307 0.0 0.0 0.00 0.00 0.00 88 1015.2
20260905051532 59 307 0.0 0.0 0.00 0.00 0.00 87 1015.2
20260905050032 59 307 0.0 0.0 0.00 0.00 0.00 87 1015.2
20260905044530 59 307 0.0 0.0 0.00 0.00 0.00 86 1015.3
20260905043029 59 307 0.0 0.0 0.00 0.00 0.00 85 1015.1
20260905041531 59 307 0.0 0.0 0.00 0.00 0.00 86 1015.1
20260905040032 59 307 0.0 0.0 0.00 0.00 0.00 86 1015.0
20260905034532 59 307 0.0 0.0 0.00 0.00 0.00 87 1014.9
20260905033025 60 307 0.0 0.0 0.00 0.00 0.00 86 1014.8
20260905031529 60 307 0.0 0.0 0.00 0.00 0.00 86 1014.7
20260905030029 60 307 0.0 0.0 0.00 0.00 0.00 86 1014.5
20260905024521 61 307 0.0 0.0 0.00 0.00 0.00 85 1014.4
20260905023021 62 307 0.0 0.0 0.00 0.00 0.00 83 1014.4
20260905021526 62 307 0.0 0.0 0.00 0.00 0.00 81 1014.4
20260905020030 63 318 0.0 1.0 0.00 0.00 0.00 80 1014.3
20260905014517 63 318 0.0 2.0 0.00 0.00 0.00 79 1014.2
20260905013028 64 321 0.0 1.0 0.00 0.00 0.00 77 1014.0